Regional Weather Roundup
Issued by NWS Cleveland, OH

Home | Current Version | Previous Version | Text Only | Print | Product List | Glossary Off
Versions: 1 2 3 4 5 6 7 8 9 10 11 12 13 14 15 16 17 18 19 20 21 22 23 24 25 26 27 28 29 30 31 32 33 34 35 36 37 38 39 40 41 42 43 44 45 46 47 48 49 50

503
ASUS41 KCLE 231012
RWRCLE
OHIO REGIONAL WEATHER ROUNDUP
NATIONAL WEATHER SERVICE WILMINGTON, OH
600 AM EDT TUE MAY 23 2017

NOTE: "FAIR" INDICATES FEW OR NO CLOUDS BELOW 12,000 FEET WITH NO
SIGNIFICANT WEATHER AND/OR OBSTRUCTIONS TO VISIBILITY.

OHZ001>008-015>018-024>027-034-035-043-044-231100-
   NORTHWEST OHIO

CITY           SKY/WX    TMP DP  RH WIND       PRES   REMARKS
DEFIANCE       FAIR      56  48  74 S7        29.90S
FINDLAY        FAIR      54  46  74 S3        29.91F
TOLEDO EXPRESS CLOUDY    56  49  77 S7        29.90S
TOLEDO EXEC    FAIR      56  49  77 S6        29.91F
LIMA           FAIR      52  49  89 SE7       29.91F
$$

OHZ009>014-019>023-028>033-038-089-231100-
   NORTHEAST OHIO

CITY           SKY/WX    TMP DP  RH WIND       PRES   REMARKS
CLE-HOPKINS    MOCLDY    55  47  74 S3        29.95S
CLE-LAKEFRONT  FAIR      56  46  69 S8        29.92S
CUY CO. ARPT   NOT AVBL
LORAIN-ELYRIA  FAIR      50  44  80 CALM      29.93F
ASHTABULA      FAIR      50  47  89 S3        29.95F
AKRON-CANTON   FAIR      50  45  83 CALM      29.94F
WOOSTER        FAIR      48  46  93 CALM      29.94F
MANSFIELD      FAIR      51  46  83 MISG      29.94S
YOUNGSTOWN     CLOUDY    46  44  93 E3        29.95F
$$

OHZ042-051>053-060>062-070>072-077>081-231100-
  SOUTHWEST OHIO

CITY           SKY/WX    TMP DP  RH WIND       PRES   REMARKS
CINC-COVINGTON MOCLDY    52  47  83 SE3       29.88F
CINC-LUNKEN    FAIR      48  48 100 CALM      29.90F FOG
HAMILTON       FAIR      48  47  96 CALM      29.90F
DAYTON         CLOUDY    50  47  89 NE5       29.91F
WRIGHT-PAT AFB FAIR      50  50  98 CALM      29.90F
DAYTON GENERAL FAIR      51  46  83 E6        29.89F
WILMINGTON     FAIR      52  47  83 E3        29.90F
$$

OHZ036-037-039>041-045>050-054>059-063>069-073>076-082>088-231100-
  CENTRAL AND SOUTHEAST OHIO

CITY           SKY/WX    TMP DP  RH WIND       PRES   REMARKS
COLUMBUS       CLOUDY    52  49  89 CALM      29.92S
OSU AIRPORT    FAIR      49  48  97 N3        29.92S
BOLTON FIELD   FAIR      51  49  95 CALM      29.92F
RICKENBACK AFB FAIR      50  49  97 NE3       29.91F
NEWARK         FAIR      48  46  93 CALM      29.93F
MARION         FAIR      49  45  86 CALM      29.93F
LANCASTER      FAIR      52  48  86 CALM      29.92F
ZANESVILLE     FAIR      49  46  90 CALM      29.92F
NEW PHILLY     FAIR      49  48  97 CALM      29.95S
$$




USA.gov is the U.S. government's official web portal to all federal, state and local government web resources and services.